Theta_e
308 298 294 293 296 299 302 303 302 302 302 302 300 299 298 297 298 301 302 303 306 302 301 302 302 302 303 303 305 307 308 307 306 306 308 309 309 308 307 308 309 310 312 316 318 320 321 323 321 325 325 327 328 327 327 328 329 331 331 330 331 332 333 332 332 332 332 331 330 329 329 328 329 329 331 331 333 333 332 332 332 332 332 331 329 329
305 294 295 298 299 300 302 304 304 302 301 299 298 298 297 298 295 301 301 303 304 300 297 300 300 300 301 303 304 305 304 304 306 306 306 307 308 309 308 308 308 310 314 317 318 318 320 320 322 323 324 323 326 326 326 326 328 330 330 330 331 332 332 332 332 332 332 333 332 330 329 329 329 328 328 329 330 332 332 332 332 332 332 331 330 328
295 294 298 301 302 302 302 303 304 301 299 299 297 297 296 297 300 302 302 304 304 301 296 299 298 299 301 302 304 304 304 305 305 305 306 307 306 308 309 308 308 309 310 311 313 315 315 319 321 320 320 321 323 325 326 326 327 328 329 330 330 331 331 331 331 331 331 333 333 332 330 330 329 330 330 330 330 330 331 331 331 332 332 331 331 329
289 295 301 304 304 301 300 302 302 301 300 298 297 295 293 297 296 293 300 302 303 301 298 299 297 299 302 304 304 305 305 305 306 307 307 307 306 307 308 309 309 308 310 310 311 312 314 316 318 318 319 320 319 318 320 323 325 327 328 329 330 330 331 331 331 329 332 332 333 333 332 331 330 328 329 329 329 329 329 329 331 332 332 332 331 331
292 298 303 303 303 301 299 300 299 296 295 298 298 297 296 296 297 297 297 300 302 302 302 299 296 296 298 298 300 303 305 305 306 307 307 308 308 309 309 310 310 309 308 309 310 311 312 314 316 316 318 320 319 319 318 319 322 325 326 328 329 330 330 331 330 329 330 330 330 332 331 329 329 329 328 328 327 328 328 328 329 330 332 332 331 331
296 300 302 300 300 300 299 297 297 297 293 295 298 298 298 299 297 298 299 297 295 294 299 297 289 289 296 297 299 301 302 302 305 305 305 306 307 307 307 308 310 311 310 309 309 309 311 312 314 314 315 317 319 320 320 320 320 320 322 325 327 329 329 330 330 330 329 329 329 329 328 326 326 325 326 325 326 327 327 327 329 330 331 332 331 331
296 301 300 298 298 298 298 296 298 299 294 293 295 301 300 299 298 298 297 296 289 287 295 299 289 285 294 294 297 299 300 301 303 303 304 306 307 307 307 308 309 310 311 311 311 310 310 310 311 312 313 314 316 319 321 321 320 319 320 321 324 327 328 329 329 330 328 328 328 329 328 328 326 325 326 328 329 329 329 329 329 329 330 331 331 331
298 298 298 298 297 296 295 294 298 299 294 291 300 300 301 299 298 297 297 295 293 298 299 299 295 287 287 293 297 298 297 299 300 302 303 304 305 306 307 308 308 310 311 311 311 311 311 311 311 311 312 313 314 316 318 319 320 320 319 319 320 323 325 328 329 329 329 327 327 327 327 327 326 325 325 327 328 329 329 329 329 329 329 330 331 330
297 295 296 295 295 294 293 297 299 300 295 295 301 301 298 299 298 298 296 294 294 292 287 293 296 288 287 293 299 299 295 296 297 299 301 303 304 305 306 307 308 309 311 311 311 310 311 311 312 312 312 313 313 313 314 317 318 319 320 319 319 319 322 324 326 327 329 327 327 327 327 326 326 327 326 326 326 327 328 328 329 329 329 330 330 330
298 298 298 298 295 292 297 298 299 299 295 298 302 303 301 301 299 298 293 292 291 288 284 290 294 286 287 293 294 297 295 295 297 299 301 303 304 305 306 307 308 309 310 311 311 311 312 312 313 313 314 314 314 316 316 316 317 317 319 320 318 318 319 321 322 325 328 328 326 326 325 325 325 325 325 325 325 326 327 327 327 329 329 329 329 329
299 303 302 299 295 297 298 299 300 300 300 303 301 298 297 296 293 294 292 291 288 282 286 292 294 291 283 289 291 292 293 297 299 301 303 304 305 306 307 307 308 309 310 311 311 312 312 313 314 314 314 314 315 316 317 317 316 316 317 318 319 319 319 320 320 322 325 328 327 325 325 325 324 324 324 323 323 324 325 325 326 326 328 329 329 329
296 298 298 299 302 300 300 297 300 301 301 299 293 293 293 290 292 288 284 287 281 282 289 292 292 293 282 286 292 296 299 301 301 300 302 302 304 305 305 307 308 309 310 311 311 311 312 312 312 313 313 313 314 314 315 316 317 317 317 317 317 318 319 319 320 320 322 325 327 326 325 324 325 324 324 323 322 322 323 324 325 326 326 327 328 329
290 292 297 299 302 300 296 294 295 297 297 296 294 292 286 282 283 279 284 279 279 281 288 292 292 288 287 291 294 297 298 301 302 303 302 302 301 302 304 306 307 308 308 309 310 310 310 311 311 311 312 312 312 313 313 314 315 316 317 317 317 317 318 319 319 319 319 320 322 325 324 323 323 323 323 322 322 323 322 323 323 324 325 326 326 327
287 294 295 296 300 301 299 290 289 289 293 292 290 288 284 279 278 276 280 281 283 286 290 290 294 287 292 295 299 298 300 302 302 302 302 301 301 302 303 304 305 306 308 308 309 310 310 310 311 311 312 312 313 313 314 314 314 314 317 316 317 318 318 317 317 318 318 318 319 320 322 323 322 321 321 322 322 322 323 323 322 323 324 325 326 327
279 281 288 293 288 299 297 295 294 291 292 292 295 292 286 284 280 276 278 276 277 280 284 290 285 280 284 288 297 298 301 302 303 303 303 303 303 303 303 304 305 305 306 308 308 309 310 310 310 312 312 312 312 313 314 313 314 313 314 314 315 315 315 315 316 316 317 317 318 318 319 321 321 321 321 321 322 322 322 323 322 323 323 324 324 326
283 283 292 297 296 298 295 298 299 295 291 293 295 295 287 285 289 280 283 281 281 280 281 283 283 286 287 295 296 296 297 298 300 300 301 301 303 303 303 303 304 305 305 304 306 308 309 310 310 311 311 312 312 313 312 313 314 314 314 313 313 314 314 314 314 315 316 316 317 317 317 318 319 319 320 320 320 320 321 322 323 323 323 324 324 325
283 281 292 295 297 297 296 298 297 298 282 289 291 284 289 296 292 284 285 286 285 282 279 285 286 289 293 295 296 296 295 295 296 297 299 300 301 302 302 303 303 305 304 304 305 305 308 309 310 311 310 310 311 311 313 313 313 313 314 314 313 313 312 313 313 314 314 315 314 314 315 316 317 318 318 319 319 320 320 320 321 322 323 323 324 325
281 281 287 290 290 296 299 299 298 298 296 292 284 289 297 294 289 286 279 281 281 277 279 286 282 284 285 281 295 295 295 296 297 297 298 299 299 300 302 302 303 304 304 305 306 306 307 308 309 310 311 310 311 311 311 312 312 313 313 313 312 311 311 312 312 312 313 313 313 313 314 315 316 316 317 318 319 319 319 319 320 321 321 322 324 324
289 281 286 291 291 296 298 297 292 298 300 292 288 296 289 280 282 283 282 275 276 275 277 282 283 284 286 286 290 289 293 294 296 297 297 297 298 299 300 302 302 303 304 305 305 306 306 306 308 308 308 309 310 311 311 312 312 313 314 313 312 312 311 311 311 311 312 312 314 315 314 314 314 315 316 317 317 318 318 319 319 320 321 322 322 322
290 279 282 291 290 293 288 288 284 288 295 294 296 290 295 289 286 284 283 283 282 276 278 277 281 279 288 288 291 291 293 293 294 295 294 295 298 300 300 301 302 302 304 305 306 307 307 307 307 308 308 309 310 310 311 311 311 311 310 310 309 309 309 309 310 309 309 310 311 313 312 312 313 314 315 315 316 316 317 319 319 320 319 320 321 321
285 288 277 285 291 292 284 286 284 289 286 286 287 284 288 284 291 288 285 282 280 277 277 276 276 280 289 292 292 293 294 295 295 295 296 297 297 298 300 302 302 303 304 305 306 307 307 307 308 309 308 308 309 309 309 309 308 308 308 308 307 308 308 308 309 308 309 309 309 309 310 311 311 312 314 313 314 315 316 317 317 319 319 319 320 320
284 285 278 283 283 282 285 291 290 291 291 287 288 286 287 284 282 279 277 288 283 281 277 278 275 282 290 295 294 293 294 295 296 297 297 297 297 298 300 301 302 302 302 302 303 303 304 303 304 305 305 306 307 307 307 307 307 306 306 307 307 307 308 308 308 308 308 308 310 309 310 310 310 311 311 311 312 312 313 314 316 317 317 317 318 318
288 285 281 279 281 284 288 292 294 294 293 290 288 286 290 288 286 283 277 281 283 283 285 283 279 281 292 295 295 295 295 295 296 296 296 297 298 299 300 301 302 302 301 302 301 302 302 302 303 303 304 305 306 306 307 305 306 307 306 306 306 307 307 307 308 308 308 308 308 309 309 309 309 309 309 309 310 310 311 312 312 313 314 315 316 317
289 283 280 281 285 287 289 291 285 283 289 289 290 290 289 285 287 285 284 284 280 282 280 279 277 282 292 293 293 294 294 294 295 296 297 297 299 300 300 300 301 301 301 301 301 301 301 302 302 301 301 303 303 303 305 306 306 307 306 307 306 306 307 307 307 307 307 307 308 308 307 307 307 306 307 307 308 308 309 309 310 310 312 314 315 316
281 282 281 277 277 276 279 283 283 285 285 281 283 288 289 289 289 289 287 286 280 281 282 279 273 280 291 293 293 293 293 293 294 295 296 296 297 298 299 299 299 299 299 298 298 299 299 299 299 301 301 302 303 303 303 305 306 306 307 307 307 307 307 307 306 305 306 306 306 306 305 305 304 305 305 306 307 307 307 308 309 309 310 312 313 315
282 281 278 272 270 270 270 271 273 276 280 284 286 286 286 286 286 285 280 282 278 282 283 279 278 285 290 292 291 292 292 293 294 294 295 295 295 296 297 297 298 299 298 298 298 298 297 297 298 298 298 299 300 301 303 304 304 305 305 306 307 307 306 306 305 305 305 305 304 305 303 303 302 303 304 305 305 306 307 308 308 309 310 311 312 313
281 281 280 279 276 273 275 278 281 283 280 279 281 284 285 287 288 286 283 280 277 281 280 282 283 284 287 289 290 291 290 291 292 293 293 293 294 295 295 296 296 296 297 297 297 297 297 297 297 297 297 298 298 298 300 301 303 303 304 305 305 306 306 305 304 303 303 303 303 303 303 302 303 303 303 303 304 305 305 306 307 307 309 309 310 312
283 280 281 281 281 280 281 280 282 284 280 281 281 281 283 283 282 280 278 276 282 278 273 280 284 281 282 285 286 287 288 289 290 291 291 292 293 294 295 294 295 295 296 297 297 296 296 296 296 297 297 297 298 298 298 298 298 299 300 303 304 304 304 306 303 302 303 303 302 302 303 302 302 302 302 303 303 304 304 304 305 306 307 305 309 310
281 278 281 281 280 282 283 283 283 283 282 282 282 283 282 284 283 280 280 282 281 276 273 281 283 281 283 285 287 287 288 288 289 290 291 292 293 293 293 293 294 294 295 295 295 296 296 296 297 297 297 298 298 297 298 298 297 296 296 297 300 301 302 303 302 303 303 302 302 302 302 302 302 302 302 301 301 301 302 303 303 303 304 305 306 309
281 277 279 280 278 280 281 282 283 282 281 282 282 282 282 282 282 282 282 283 282 281 283 283 283 282 285 286 288 289 290 290 290 291 292 291 291 291 292 292 293 293 293 294 294 295 296 297 297 297 297 297 297 297 297 297 298 299 300 300 299 298 300 300 301 302 302 302 302 302 301 301 300 301 301 300 301 301 301 300 301 301 301 302 303 304
281 275 282 278 274 276 279 281 282 282 281 280 281 282 282 282 282 283 282 283 283 282 283 283 281 281 286 289 289 290 291 291 291 289 290 290 291 291 291 291 291 292 293 294 294 295 296 297 297 297 297 297 298 298 299 300 300 300 299 299 299 300 299 299 301 301 300 301 301 301 300 299 300 299 299 300 300 300 299 300 299 299 299 299 300 301
282 277 279 276 273 274 278 278 279 280 280 280 280 281 281 281 279 280 279 282 280 279 280 280 279 279 285 289 289 290 290 289 289 289 289 290 290 290 290 290 291 292 292 293 294 295 295 296 297 297 297 297 298 299 298 299 298 297 298 299 300 300 300 301 302 301 301 301 301 300 299 299 297 297 299 299 299 299 299 297 296 297 297 296 297 298
278 276 275 274 273 272 277 278 277 277 276 273 275 279 281 282 282 282 283 283 283 283 280 277 278 284 286 288 287 287 288 289 289 289 289 290 290 290 291 291 292 292 293 293 293 294 294 295 295 296 296 296 299 300 299 299 298 298 299 298 298 299 299 300 301 301 302 302 301 300 300 297 297 298 298 299 299 299 297 296 295 295 295 296 295 292
278 276 276 276 272 273 276 276 276 273 267 269 282 284 283 281 281 279 280 282 283 284 282 284 284 286 286 286 286 286 287 287 288 290 291 290 290 291 291 292 292 293 292 292 293 294 294 295 295 296 296 296 296 296 296 297 298 299 298 298 298 298 299 300 300 300 301 301 301 301 299 296 296 298 299 299 298 296 296 294 296 295 293 290 290 293
278 278 277 276 274 273 275 274 271 266 268 280 284 285 285 285 284 282 282 284 284 285 285 284 285 286 287 288 288 288 289 289 290 290 290 291 291 290 291 291 292 292 292 293 294 294 294 294 295 295 295 296 297 297 297 298 298 299 300 301 300 300 300 299 299 300 301 301 301 300 297 297 297 298 298 298 296 295 295 295 295 294 293 292 292 292
279 278 278 277 277 276 273 271 265 267 277 280 282 284 286 285 284 282 281 283 285 285 285 284 285 286 287 288 289 290 290 291 291 292 292 292 292 292 291 292 293 293 291 293 294 295 295 295 295 295 295 296 296 296 297 297 298 298 299 300 300 300 299 299 299 299 298 298 299 299 297 297 297 297 297 297 296 295 295 295 295 295 294 291 291 290
282 280 279 275 279 271 273 272 271 276 275 277 277 280 281 279 279 279 275 279 284 285 285 285 285 286 287 287 288 289 290 289 288 289 292 292 293 293 293 293 293 294 294 294 294 294 293 293 292 293 293 293 294 295 296 296 296 296 296 297 298 298 298 298 298 298 299 298 298 297 297 297 298 297 297 296 295 295 295 295 295 294 293 291 292 291
284 279 280 275 275 277 272 270 271 270 267 273 279 283 285 285 285 284 280 277 284 285 286 285 284 285 286 287 288 288 288 285 283 285 288 290 292 292 294 293 293 292 291 290 289 288 288 289 289 290 290 291 291 292 292 291 291 292 293 293 294 295 295 296 296 296 296 296 296 297 297 297 296 296 296 295 295 295 295 294 294 294 293 292 293 292
284 284 281 277 275 276 273 270 269 268 271 278 279 283 285 286 285 285 279 274 282 284 285 285 284 285 285 285 285 286 284 281 282 286 289 290 292 292 290 288 288 288 287 287 285 285 286 286 286 287 288 288 288 287 287 287 288 288 289 290 291 292 293 293 290 289 289 290 292 293 295 295 295 295 295 295 295 295 294 294 294 294 292 292 292 293
280 280 279 276 274 275 274 271 269 273 272 278 281 283 284 285 285 281 270 271 280 283 285 285 285 285 285 286 286 285 283 280 281 284 290 291 289 286 285 285 284 285 284 284 284 283 283 283 284 284 285 286 285 283 284 284 285 284 286 287 288 289 289 287 286 286 287 289 290 292 293 294 294 294 293 294 294 294 294 293 293 292 291 290 291 292
275 277 278 273 275 275 275 272 274 275 281 283 283 284 284 286 282 273 268 275 280 283 285 284 284 285 283 283 284 281 284 286 287 289 288 287 286 284 283 283 283 283 282 282 281 282 280 281 282 283 283 284 281 280 281 282 281 281 283 283 284 284 284 284 283 284 285 287 288 290 291 292 292 292 293 293 293 293 292 291 291 290 289 290 290 289
274 275 276 276 274 273 274 272 272 275 281 281 283 283 285 280 272 272 278 280 282 282 283 282 282 283 281 280 282 282 284 285 287 285 285 285 283 282 281 281 280 280 279 279 280 279 278 279 280 280 280 280 279 279 279 279 279 279 280 281 281 281 282 281 282 283 284 285 286 287 288 289 290 290 291 291 291 290 291 290 289 289 289 288 288 289
272 269 270 271 273 274 273 271 270 267 277 282 282 281 282 274 276 278 279 281 283 283 282 281 282 281 279 279 280 281 281 283 284 282 282 282 281 280 279 278 278 277 277 277 277 277 277 277 278 278 278 278 278 277 278 278 277 278 278 278 278 279 280 280 281 282 283 284 285 286 287 287 287 288 289 289 288 288 288 288 288 288 288 287 288 288
276 269 270 272 275 269 270 268 268 274 277 281 282 275 280 281 283 282 280 279 282 283 281 280 281 281 280 279 279 279 279 281 281 280 280 280 280 278 278 277 277 276 276 276 276 275 276 276 276 276 276 277 276 276 277 276 275 275 275 275 277 277 277 278 279 281 282 284 285 286 286 286 287 287 287 287 287 286 286 287 286 286 287 285 287 287
276 273 274 271 276 271 270 274 278 280 281 282 282 282 282 283 282 281 281 281 281 281 282 280 280 280 279 279 279 278 278 280 278 279 278 278 278 277 276 276 276 275 275 274 274 274 274 274 274 274 274 275 275 275 275 275 274 273 273 274 275 274 275 276 278 279 281 284 285 285 285 285 285 286 285 285 285 285 285 285 285 286 285 284 285 285
277 277 276 274 273 277 278 279 280 280 280 279 280 282 281 281 281 281 280 279 280 281 280 278 279 278 278 278 277 278 279 279 278 279 278 278 277 277 276 275 275 275 274 274 274 273 273 273 273 273 272 273 274 273 274 273 273 271 272 273 273 273 274 275 276 279 282 285 285 286 286 284 284 284 284 284 284 284 284 284 284 284 284 284 283 284
274 274 270 270 273 270 267 274 275 276 277 277 277 279 279 280 280 280 279 279 280 279 278 278 278 277 277 277 277 277 277 277 277 278 278 278 278 276 275 274 274 274 273 272 273 273 272 272 271 271 271 271 273 272 272 272 272 272 271 271 271 272 272 274 277 280 284 285 285 286 286 285 285 285 284 282 282 282 282 283 283 282 282 281 281 282
270 275 271 271 269 270 270 274 275 276 276 277 277 277 276 277 279 280 280 279 279 278 277 277 278 277 278 276 277 275 275 276 276 275 275 275 275 274 273 273 273 273 273 272 272 272 271 271 270 270 270 270 271 271 271 271 271 271 270 270 270 270 271 274 277 280 283 283 284 284 285 285 285 285 283 282 282 281 282 282 283 282 281 281 280 280
275 275 268 271 269 272 274 275 275 275 275 273 273 275 278 278 278 278 278 278 278 278 278 278 278 277 277 276 276 274 274 275 275 274 273 274 273 272 272 272 272 271 271 271 271 271 270 270 269 269 269 269 270 269 269 270 270 270 269 269 269 269 270 273 276 279 282 282 282 282 283 284 284 284 283 282 281 281 281 281 282 282 282 283 283 281
274 270 273 271 268 267 268 271 272 269 269 273 276 278 277 276 276 277 277 277 277 277 277 276 275 276 276 275 274 274 272 273 273 273 272 273 271 271 271 271 271 271 270 271 270 269 269 269 268 268 268 268 269 268 268 268 269 269 268 268 268 269 269 271 274 277 277 279 280 281 281 282 283 283 282 282 281 280 280 282 282 282 281 281 283 284
271 272 272 269 268 267 272 274 275 274 274 276 277 278 278 278 278 277 277 277 277 276 274 273 273 273 274 275 274 273 272 272 272 272 271 272 271 271 271 270 269 269 269 269 268 268 268 269 269 268 267 268 268 267 267 267 267 267 267 267 268 268 269 270 272 274 274 275 276 278 279 279 279 280 281 281 280 280 279 278 280 282 283 283 283 284
Wind_Speed
6 10 12 15 15 17 15 15 15 15 9 10 9 9 8 8 9 9 8 8 4 5 10 10 12 13 15 11 7 11 13 14 13 10 9 9 9 8 6 6 7 7 7 5 5 5 4 4 4 8 7 7 7 6 7 8 9 10 11 10 11 11 10 9 9 9 9 10 8 7 9 11 10 10 10 9 9 9 9 10 11 11 10 10 11 12
8 11 12 15 17 16 16 14 14 12 12 15 12 9 10 9 6 7 9 6 2 7 5 6 10 14 13 8 8 10 9 11 12 13 12 10 11 10 9 9 8 7 4 4 4 4 3 2 4 5 6 6 8 8 8 9 11 11 10 11 11 9 11 11 12 11 10 10 11 11 12 11 9 9 10 11 10 11 10 10 10 10 10 10 10 11
7 11 14 16 15 12 11 11 11 13 14 15 11 9 10 11 7 10 11 10 5 1 4 5 9 9 9 9 9 9 11 10 9 9 9 11 11 10 10 10 9 6 6 5 5 5 5 5 5 5 6 6 9 10 11 11 9 9 10 10 10 11 12 12 12 11 11 10 10 10 8 9 8 8 9 8 9 8 9 9 10 10 10 10 10 11
10 11 16 12 10 11 12 12 12 12 12 12 10 10 12 7 6 7 10 12 8 3 2 3 9 9 9 12 14 12 11 10 9 12 12 9 10 8 9 10 9 8 8 9 8 8 7 7 8 7 8 10 9 8 8 9 11 10 10 11 12 12 13 12 13 13 13 13 12 10 8 7 8 7 7 9 8 8 9 11 11 10 10 11 11 12
9 6 12 11 9 12 14 12 12 11 11 13 13 12 11 10 9 10 8 7 7 11 6 5 10 12 9 13 13 9 10 13 16 15 14 12 10 10 8 7 8 10 9 9 8 8 8 8 10 11 10 10 10 10 10 10 11 10 13 13 13 12 12 11 12 14 12 9 8 8 7 5 6 5 7 7 8 10 10 9 9 13 12 12 12 12
13 11 3 13 14 13 12 12 14 11 11 11 13 15 14 11 11 11 11 10 8 10 7 2 8 15 9 13 16 13 11 16 14 15 15 14 14 13 14 14 11 10 8 8 8 8 9 10 9 9 10 10 11 12 12 12 12 10 10 11 12 11 11 11 12 13 11 10 11 10 10 10 9 9 8 11 13 12 12 14 14 12 12 13 12 11
9 8 10 8 10 11 13 11 11 11 11 10 8 13 13 11 9 8 9 5 7 12 3 11 13 16 7 9 11 11 14 18 13 14 14 13 14 14 14 13 13 13 12 11 11 11 10 9 8 9 9 9 10 11 10 10 11 12 11 11 12 12 11 12 12 12 11 11 10 13 14 14 14 13 12 12 10 10 11 9 9 11 11 13 13 12
3 10 11 10 9 10 11 12 11 13 10 11 4 6 7 12 13 12 10 9 6 3 5 5 4 11 12 7 8 9 11 12 12 13 14 13 12 13 14 13 12 13 13 12 12 13 13 13 12 13 13 11 12 10 9 8 9 12 14 12 11 9 10 10 10 11 12 12 12 12 12 12 12 13 13 12 11 10 8 10 11 10 10 12 13 13
14 9 11 12 10 9 11 7 6 9 8 3 4 7 8 9 11 11 10 9 9 8 9 7 2 7 9 7 9 8 14 15 16 12 9 9 10 12 12 13 14 14 14 13 11 11 12 13 14 14 14 14 14 11 10 9 8 8 9 10 9 10 9 9 9 10 11 12 13 12 11 11 10 11 10 8 8 9 9 10 9 10 11 11 13 13
3 6 9 12 9 10 6 7 7 8 10 9 4 1 0 1 3 5 7 7 7 8 12 11 10 12 16 11 9 8 14 16 14 12 11 12 12 10 10 10 12 12 11 12 13 13 13 13 13 11 11 10 10 9 8 7 6 7 7 8 9 10 9 9 9 10 11 13 12 11 11 12 11 9 9 8 9 9 9 11 11 11 10 11 11 13
7 3 6 2 7 6 6 7 5 7 10 2 5 2 0 1 1 2 2 1 5 15 13 14 15 14 16 14 11 12 10 10 9 9 11 11 10 11 11 10 9 10 11 11 12 13 12 9 9 9 9 9 8 8 9 9 8 6 6 6 7 8 8 9 10 11 12 12 12 12 12 13 13 13 12 11 11 10 9 10 11 11 11 11 12 11
10 8 2 2 4 4 5 5 4 4 3 6 0 2 2 4 1 2 1 2 8 13 13 17 15 17 17 14 7 11 8 8 9 10 9 8 10 10 7 7 8 7 9 11 11 11 9 7 8 7 9 9 9 7 7 7 7 7 6 6 7 6 6 7 8 9 10 10 12 12 13 14 14 14 12 13 14 12 13 12 11 10 10 10 10 11
8 9 3 6 1 3 4 5 6 4 4 8 6 3 6 3 4 6 4 8 10 11 6 11 13 11 21 19 6 3 5 9 10 9 9 8 7 6 6 8 8 7 7 9 10 9 7 8 9 9 9 8 7 8 7 7 6 6 6 6 7 7 6 8 7 7 8 8 9 11 12 12 12 12 13 12 12 11 11 11 11 10 11 10 10 11
4 6 9 4 2 4 3 8 6 7 8 7 8 8 8 7 7 8 7 4 7 8 7 3 9 13 6 13 15 19 19 11 13 12 9 6 5 6 6 5 5 5 7 7 8 9 9 8 8 8 7 7 7 7 8 7 6 5 5 6 6 9 7 6 6 8 8 9 10 10 11 11 10 11 11 11 11 11 10 9 10 11 10 10 11 11
6 6 9 8 6 8 9 10 9 4 7 11 4 9 8 8 5 8 6 11 9 8 5 11 5 4 7 7 4 14 15 15 18 19 17 17 19 14 7 5 5 6 5 7 7 8 9 9 8 8 7 6 6 6 7 6 6 6 6 6 6 6 6 6 7 6 8 9 9 9 10 10 9 10 10 10 10 10 11 10 11 11 10 10 11 11
8 9 2 17 8 10 11 8 7 5 5 4 5 4 7 13 4 12 6 6 5 7 6 5 6 3 6 3 7 4 9 9 13 15 13 16 16 16 14 12 9 7 7 5 5 6 7 9 9 7 6 5 5 6 5 5 5 5 6 5 6 6 6 6 6 7 8 8 7 7 7 9 9 9 8 9 8 9 10 11 11 12 11 10 10 9
3 6 0 5 10 12 14 12 9 7 9 4 4 8 9 7 13 7 7 10 7 9 11 2 7 6 5 13 11 5 6 5 4 9 11 13 14 14 14 14 12 9 8 7 6 6 7 7 7 8 6 5 4 5 5 6 5 5 5 5 5 5 5 6 6 6 6 6 6 7 7 7 7 9 9 10 10 10 9 9 10 10 10 10 9 9
2 3 2 4 7 10 7 7 8 13 7 1 7 7 5 5 4 5 10 3 9 13 11 8 15 9 7 9 9 15 15 16 14 11 9 7 7 11 12 11 10 9 9 9 8 8 7 6 7 6 4 5 5 5 5 5 4 4 4 5 5 5 5 6 5 5 5 6 6 7 7 7 8 8 9 9 10 9 9 9 8 8 9 10 10 9
2 7 9 7 7 2 5 4 6 8 5 8 3 4 10 3 9 2 1 11 8 11 8 10 13 12 9 11 4 4 9 11 11 12 13 9 6 6 6 7 8 7 7 6 7 7 6 5 4 4 5 2 2 2 2 2 1 1 1 2 4 6 7 6 5 4 4 5 5 5 7 7 7 7 7 7 8 7 8 10 9 10 10 9 9 9
1 1 4 4 9 3 1 1 9 8 10 2 4 2 4 1 6 8 5 3 6 12 6 13 8 11 7 9 9 13 12 10 10 9 5 5 7 8 7 6 6 6 7 9 9 7 4 3 4 3 3 4 5 5 3 1 0 1 3 4 5 5 5 5 6 5 6 6 5 6 5 6 6 7 7 8 8 8 9 10 9 10 9 11 8 8
5 5 9 1 5 2 3 3 4 7 6 3 4 3 3 1 1 3 2 4 5 6 10 10 11 4 5 7 10 12 12 11 10 11 10 7 5 6 5 6 4 2 4 5 6 7 9 8 7 6 5 3 2 1 1 1 3 4 4 4 5 5 6 6 7 5 6 5 5 5 7 8 6 7 7 7 8 9 9 9 9 9 9 7 9 7
2 5 5 3 2 2 4 4 7 8 4 3 9 12 10 6 6 9 12 4 5 5 5 6 14 4 3 0 2 3 3 2 1 1 3 3 5 6 9 11 10 7 6 6 6 6 6 6 6 6 5 3 1 1 2 4 4 5 5 5 5 5 6 7 7 6 6 5 5 6 7 7 6 7 6 7 7 9 9 9 9 9 7 8 9 7
2 2 2 8 6 7 7 8 2 3 3 6 4 5 3 4 3 9 11 9 4 9 6 10 10 10 1 10 11 9 7 11 13 9 11 8 7 8 7 6 6 6 5 5 5 4 4 4 4 4 4 3 3 4 4 5 5 5 6 5 6 6 8 7 8 6 5 5 6 7 7 6 6 5 6 7 7 8 9 8 8 6 7 8 8 7
6 2 2 4 4 5 8 1 3 7 1 4 4 4 6 7 8 9 9 3 4 0 3 5 10 5 3 1 4 8 12 10 8 11 9 8 7 8 8 8 7 6 5 5 5 4 4 2 2 3 4 5 4 5 5 6 6 6 6 6 6 7 9 8 7 7 6 6 7 7 6 6 6 6 6 7 8 8 8 8 8 6 8 8 7 9
1 2 2 5 3 2 3 3 1 2 1 1 3 3 5 6 8 8 6 5 10 10 10 9 12 3 4 10 11 12 12 14 15 7 8 9 9 6 6 6 5 6 6 6 7 7 6 5 5 5 5 5 5 5 5 6 6 6 7 6 8 9 9 8 7 6 7 6 8 7 7 7 6 6 7 8 7 8 8 8 8 7 8 8 8 8
3 3 3 1 3 3 2 3 2 2 1 1 1 5 5 2 8 7 8 6 13 6 11 10 10 8 11 11 16 14 13 11 8 6 7 6 6 12 12 6 5 8 8 10 12 12 12 11 10 10 10 9 9 8 7 6 6 6 7 8 8 9 8 9 7 6 7 7 7 8 8 8 6 7 8 8 7 8 8 8 8 8 7 7 9 8
1 1 2 5 6 8 9 7 7 2 2 2 7 7 4 1 3 5 5 7 7 3 9 8 7 9 10 11 12 7 8 12 15 14 12 10 10 8 7 11 11 10 13 16 17 18 19 19 21 19 16 13 11 9 8 8 8 8 7 8 8 8 9 8 6 6 6 7 7 8 8 7 8 8 7 7 8 7 7 8 8 8 8 7 8 8
1 3 5 7 10 11 11 8 11 8 10 9 11 12 10 11 10 10 9 10 7 10 16 5 6 2 7 9 14 14 11 11 13 12 13 13 13 13 13 11 12 13 14 15 19 21 21 22 21 19 18 17 15 14 11 9 8 8 7 9 8 6 6 6 5 6 7 7 8 8 10 8 8 8 8 7 6 7 7 7 8 8 8 7 8 9
2 3 4 5 11 12 11 12 12 11 8 9 11 9 11 8 9 11 12 11 11 10 12 10 11 11 14 14 17 17 16 15 15 15 13 16 17 16 16 16 17 18 18 18 18 18 18 17 17 17 15 14 13 13 14 13 11 7 6 5 5 5 6 6 6 7 8 8 9 10 9 8 7 7 7 7 6 7 7 8 8 8 8 7 7 8
0 5 7 5 8 10 10 12 11 13 12 12 13 14 14 14 15 13 13 12 12 13 12 12 15 18 13 13 15 18 18 15 16 14 14 14 16 17 16 16 17 18 18 18 18 17 16 16 17 17 17 14 12 12 11 10 8 7 6 6 5 5 6 5 7 8 9 9 10 10 8 8 6 6 7 6 7 8 8 8 8 8 8 8 8 8
3 4 6 2 3 7 9 11 12 14 13 15 14 14 14 12 12 12 12 12 14 16 15 18 19 20 12 11 15 17 18 15 14 15 16 16 15 16 16 17 17 16 16 15 15 16 17 17 15 14 14 15 14 11 10 8 7 5 6 6 6 6 5 6 7 9 8 9 9 9 7 6 7 7 7 8 7 7 8 9 8 7 7 7 7 8
1 5 4 2 6 9 10 10 11 11 12 15 14 14 12 13 15 13 14 13 13 16 14 15 15 13 9 14 15 16 18 18 20 19 17 14 14 15 15 15 15 15 14 13 14 13 14 15 14 12 12 12 11 10 6 5 5 5 6 6 7 8 7 8 8 8 8 9 9 7 7 6 6 6 7 7 8 9 9 8 7 7 7 6 7 7
3 2 4 2 6 9 12 11 12 13 11 12 12 13 15 17 17 16 16 14 15 13 14 14 13 11 13 11 14 15 16 16 17 15 15 13 12 12 14 14 13 13 12 11 6 3 5 5 4 5 5 5 6 6 7 8 7 7 6 6 6 6 7 8 9 10 10 9 8 8 7 6 6 6 7 8 9 8 7 7 7 7 7 8 7 5
3 4 6 3 5 8 11 13 9 7 13 10 4 12 17 20 19 19 17 16 16 13 14 13 16 14 12 13 16 18 17 16 14 14 12 12 12 12 13 13 11 10 9 6 5 5 6 9 9 8 7 7 7 6 7 7 7 7 5 5 6 6 7 7 9 8 9 9 10 9 7 5 6 7 9 8 7 6 7 7 9 8 7 6 5 6
6 5 6 3 6 8 10 10 12 16 14 9 15 15 13 15 14 17 19 19 19 18 19 19 20 19 19 18 16 17 16 15 15 19 19 17 16 15 13 12 11 9 8 7 8 9 8 7 7 8 9 8 8 7 8 9 8 10 11 11 10 8 8 7 7 8 8 9 9 7 6 6 6 7 8 8 7 7 8 9 9 8 8 7 8 9
10 9 7 8 7 6 7 8 13 16 8 6 7 9 11 11 12 13 17 18 20 21 21 20 18 17 16 16 16 15 16 20 18 19 19 17 13 12 12 12 12 9 4 4 4 5 5 6 6 6 7 7 7 8 6 6 7 8 9 11 11 10 8 7 8 8 7 7 8 8 7 6 6 7 8 8 7 8 9 9 10 11 9 8 8 8
13 9 7 10 7 11 10 13 17 10 14 12 10 8 6 11 9 12 16 16 16 17 17 17 17 17 16 16 16 16 16 16 15 14 10 12 10 10 11 6 5 9 7 6 7 8 9 8 8 7 7 7 8 9 9 10 10 9 9 10 10 10 10 9 10 9 9 8 7 7 7 7 8 8 9 8 8 9 9 10 10 10 6 7 8 9
14 14 9 10 8 10 12 13 11 10 15 14 16 16 14 15 16 16 15 18 10 13 11 14 15 15 17 17 17 17 14 14 14 12 7 9 8 3 10 9 8 9 8 7 8 8 8 8 9 9 10 10 10 9 10 11 11 11 10 10 9 9 9 9 8 8 10 11 12 11 10 8 8 8 9 8 9 10 10 9 8 9 6 8 9 10
13 15 13 13 11 9 13 12 11 12 13 9 12 12 14 14 17 15 13 17 5 11 11 14 16 15 14 13 13 9 9 11 11 9 7 5 10 10 9 10 8 7 8 8 9 9 9 10 9 8 9 9 9 11 11 11 11 10 10 10 9 8 8 6 8 11 11 12 12 12 11 11 10 9 9 10 10 9 9 9 9 8 6 7 8 10
13 11 12 14 15 13 13 15 14 6 10 7 10 11 11 11 9 7 14 11 4 14 14 15 15 12 11 12 13 13 12 13 8 3 6 7 7 10 9 8 8 8 9 8 7 8 9 9 8 8 8 9 9 11 11 10 9 8 9 9 9 10 9 10 11 11 11 11 11 10 10 9 10 10 10 10 11 9 9 8 8 7 7 7 7 8
5 8 9 15 12 17 20 15 12 10 9 7 9 12 12 9 6 12 14 6 13 14 11 11 13 10 11 12 11 7 6 7 6 5 6 5 7 8 8 6 7 6 7 9 8 8 7 8 6 7 7 7 8 9 9 8 9 8 7 8 8 9 10 12 13 13 12 11 11 11 11 10 9 11 12 9 10 10 9 8 8 7 6 7 7 6
8 5 8 9 14 14 13 14 13 11 2 7 7 12 9 4 10 11 7 7 9 13 8 9 11 10 11 10 8 7 10 11 6 6 7 7 6 5 6 5 4 5 4 4 7 9 9 8 7 8 7 7 8 8 7 8 7 8 9 8 8 10 12 12 12 11 12 12 11 11 11 11 11 9 10 10 9 10 11 7 6 6 6 7 6 7
4 3 7 7 4 5 6 10 10 12 1 9 11 12 8 2 3 2 8 8 7 9 10 9 9 9 10 13 10 10 13 12 6 6 5 5 5 5 5 5 5 6 7 7 8 9 9 7 8 8 9 8 9 9 9 10 9 9 10 10 12 12 12 13 13 12 12 11 10 9 9 9 10 10 8 9 8 8 10 8 6 7 6 6 6 7
2 2 5 6 3 10 11 11 8 1 1 2 8 4 4 1 3 5 3 9 5 6 8 10 10 9 8 7 11 13 10 12 12 12 10 7 7 6 5 5 5 4 5 5 6 9 9 7 8 8 8 8 9 10 10 11 10 10 11 12 13 13 13 12 13 13 12 11 11 10 8 7 8 8 8 8 8 7 8 8 7 6 6 5 6 6
5 6 3 9 2 2 5 9 11 15 14 5 2 2 3 5 2 1 2 5 7 7 6 6 9 10 8 11 11 10 13 11 11 10 8 8 7 7 8 7 7 7 7 8 8 8 7 8 9 9 10 8 10 10 10 10 10 11 11 13 13 13 14 14 13 12 12 12 11 10 8 6 6 8 6 7 7 7 7 7 6 7 5 4 4 5
9 12 10 7 11 8 12 15 15 12 7 5 3 2 6 4 3 3 2 5 5 5 4 5 8 8 9 7 9 10 7 9 12 12 8 6 5 4 5 5 6 6 6 7 8 9 7 7 7 8 10 10 10 11 10 10 10 12 12 13 13 14 14 13 12 11 11 9 9 10 9 6 6 6 6 8 8 8 8 9 8 7 6 6 5 5
6 3 1 7 7 7 13 5 4 9 14 17 18 19 11 4 3 3 2 4 6 6 6 5 7 8 8 8 8 9 9 7 10 9 7 7 5 6 7 8 8 9 10 10 9 9 8 7 9 9 11 11 11 11 11 10 10 10 12 13 13 13 13 13 11 11 9 8 9 8 8 7 6 6 6 8 7 7 7 8 8 7 7 7 7 7
6 2 7 6 4 6 12 12 12 14 17 16 13 5 1 4 3 5 6 6 6 6 7 8 7 7 6 7 5 6 8 8 7 7 7 7 6 6 7 7 8 8 8 8 8 9 7 7 7 9 10 10 10 11 11 10 11 11 12 12 12 13 13 12 12 11 9 10 8 8 9 7 8 7 5 7 7 7 8 7 6 6 7 7 6 6
8 7 12 6 10 14 16 17 16 16 14 6 1 3 3 4 5 5 5 5 6 7 9 7 5 7 6 6 4 4 7 7 5 6 7 7 6 6 6 6 7 7 8 9 9 8 9 7 7 7 8 8 9 10 10 10 10 10 12 12 12 12 12 12 14 12 10 10 9 9 9 7 7 6 5 5 6 6 7 7 7 7 5 6 5 3
8 14 13 10 13 13 12 12 7 11 11 7 9 14 7 5 5 7 7 9 9 10 8 6 6 4 5 4 3 4 5 6 4 4 5 5 4 6 6 5 5 6 6 6 6 5 5 5 5 5 6 7 8 9 10 10 11 10 10 11 11 11 11 12 12 11 11 10 9 9 9 8 7 6 5 4 4 4 4 10 14 10 6 5 10 13
11 15 10 11 11 13 12 12 11 13 16 15 13 8 5 5 5 8 11 11 11 5 2 3 7 6 5 4 1 2 5 5 5 4 4 3 3 4 5 6 6 5 6 6 5 6 6 7 6 5 5 8 8 8 9 10 10 11 12 12 12 11 10 11 10 9 9 11 10 11 10 8 8 7 5 4 3 3 4 4 6 14 17 14 12 14
Wind_Direction
145 189 193 201 211 211 204 204 211 216 207 264 282 294 282 273 252 244 238 252 193 237 239 236 241 241 245 249 243 225 231 246 252 244 226 230 240 246 246 237 232 229 232 223 215 227 222 198 162 179 172 164 174 183 182 185 190 188 188 183 189 191 189 185 190 192 189 194 198 204 207 213 209 209 209 214 214 212 210 204 205 207 206 198 191 193
191 201 211 212 218 214 210 204 215 223 207 228 240 254 269 273 275 302 307 275 175 189 249 243 251 249 260 258 255 276 266 241 233 243 242 231 223 227 236 248 240 235 238 224 217 231 235 223 138 145 154 162 172 195 193 196 196 196 194 189 194 182 190 195 195 195 195 196 197 196 205 206 206 205 205 213 212 215 215 211 209 209 206 201 195 193
206 211 213 214 216 221 227 220 217 219 218 224 231 234 248 249 278 287 289 296 316 56 277 317 293 285 273 262 259 256 261 263 264 252 239 241 240 223 223 233 240 233 236 233 225 221 218 212 190 175 186 193 191 190 194 201 199 198 196 200 193 190 190 198 197 194 200 200 201 200 206 200 211 212 211 214 215 214 217 217 215 212 211 205 202 193
212 225 227 222 209 217 223 217 212 219 226 230 223 230 234 241 233 260 252 274 275 197 297 261 277 267 257 258 254 248 259 269 258 255 254 241 246 237 221 219 228 231 226 224 218 223 216 212 209 204 204 207 211 208 206 203 200 200 199 202 199 200 196 196 198 198 202 198 199 201 201 197 200 201 202 207 209 212 213 219 215 218 212 207 207 198
217 219 213 215 226 220 219 215 219 219 227 229 227 225 233 229 221 225 257 265 292 276 275 295 287 272 247 263 264 256 250 249 250 249 248 248 246 246 247 239 221 229 226 224 223 222 221 215 215 214 211 206 204 206 209 208 204 204 202 202 201 202 202 201 200 201 198 190 193 196 199 195 200 208 194 197 213 211 212 217 214 219 212 211 209 207
235 237 193 190 208 218 222 224 216 211 227 227 227 223 228 228 233 226 234 249 250 260 203 210 273 257 246 239 250 249 244 245 239 239 237 235 238 238 238 238 236 237 236 237 231 226 223 223 223 220 215 210 208 210 211 210 210 207 209 207 204 204 203 204 203 200 194 193 192 185 186 198 201 205 198 201 207 203 204 210 213 213 209 212 212 208
234 228 238 227 202 204 216 219 221 215 229 229 219 214 231 239 243 242 246 218 241 240 212 186 228 270 235 231 227 232 233 242 238 234 238 233 232 232 234 231 231 232 238 241 242 241 241 238 232 232 225 220 215 218 214 212 208 211 213 212 207 205 206 205 204 195 190 197 200 198 198 198 199 204 212 213 212 206 212 213 211 212 210 211 211 211
190 226 226 233 219 210 208 218 210 202 217 238 225 218 214 227 234 237 235 226 245 286 293 50 228 266 277 237 248 250 255 245 238 228 233 234 232 228 229 225 222 224 227 231 233 235 237 239 238 240 241 239 237 231 224 217 206 209 214 216 213 209 210 209 205 197 191 196 201 205 207 207 208 209 215 210 214 211 204 207 210 208 210 210 211 213
200 213 217 217 218 219 222 220 209 192 210 233 91 123 198 230 236 239 236 233 230 250 246 231 134 284 247 234 235 238 257 257 260 258 250 239 233 229 226 219 218 218 217 221 228 231 232 233 234 235 238 241 244 242 235 229 221 215 217 220 218 215 212 212 203 201 196 200 202 206 207 213 219 220 225 219 212 211 208 214 207 207 208 209 210 211
223 227 223 224 222 224 214 216 212 193 215 217 136 136 9 127 163 229 225 231 243 226 236 218 178 245 264 242 245 218 233 251 256 257 256 251 248 244 236 226 222 217 213 215 227 231 228 230 233 234 235 239 237 238 239 237 226 223 216 217 215 218 213 208 205 202 200 202 203 206 208 213 219 221 230 222 217 212 206 217 213 211 208 207 207 209
289 23 22 225 233 238 230 216 212 212 221 101 68 99 28 28 51 37 58 175 237 239 233 225 205 215 264 243 221 235 230 235 254 257 250 250 248 241 237 226 223 218 206 208 221 231 233 230 232 233 234 235 235 228 228 234 229 225 224 221 223 222 213 210 211 203 204 201 203 208 208 212 218 219 220 223 227 221 216 217 216 214 212 207 207 203
268 286 317 312 345 278 251 255 233 233 212 95 26 119 35 299 19 346 335 106 238 245 226 223 218 209 243 257 219 243 254 226 221 235 239 236 232 235 232 229 222 205 204 207 214 229 234 242 241 233 236 238 239 241 236 235 228 225 226 226 235 240 227 222 219 215 211 202 206 209 209 214 218 219 221 222 226 221 223 222 221 216 216 214 211 205
246 243 221 248 55 336 217 234 237 238 203 145 144 153 191 227 145 241 163 224 218 238 221 217 206 231 233 252 243 275 227 231 229 247 256 258 253 240 226 224 222 215 208 207 213 219 220 225 232 232 236 238 244 246 245 239 232 226 225 224 228 240 233 229 225 223 221 214 213 213 218 223 225 228 229 231 234 228 228 227 228 221 221 216 215 211
256 214 212 208 291 191 246 203 191 227 205 180 181 175 188 209 214 238 217 240 256 241 235 210 172 234 263 268 238 242 249 267 279 270 262 261 263 253 243 236 237 225 215 209 207 207 215 222 230 229 227 226 231 235 236 238 235 228 222 221 218 234 232 233 233 231 229 224 223 221 223 226 227 233 235 236 237 236 234 232 232 229 228 222 220 215
244 231 213 157 232 154 216 213 201 212 184 212 178 193 205 212 213 232 217 233 228 247 221 195 195 234 157 231 197 218 233 216 233 240 244 250 259 259 253 249 243 249 232 215 207 210 216 224 228 229 228 226 227 232 233 232 231 227 231 227 223 236 241 234 231 229 230 229 227 227 226 228 227 232 234 238 236 236 236 235 235 234 230 228 225 219
221 247 204 185 189 176 202 216 221 209 288 235 212 186 223 225 235 247 226 243 239 264 257 188 208 200 200 262 238 191 226 215 217 235 231 232 233 243 247 248 244 235 234 222 219 231 234 226 234 238 233 227 227 235 238 232 221 216 226 224 226 226 238 238 237 232 229 233 232 231 230 230 230 231 235 242 239 239 236 238 235 237 234 234 233 230
209 236 118 220 204 191 196 193 208 178 225 181 130 220 217 230 234 274 283 264 316 290 248 253 263 266 292 273 265 278 283 272 239 236 226 226 225 226 234 239 236 228 228 241 245 233 230 234 239 241 233 230 235 239 231 231 223 217 224 231 243 246 247 248 242 236 234 238 240 241 234 233 233 233 234 237 242 242 242 241 242 242 241 240 236 235
174 267 331 354 221 211 207 207 201 200 204 114 215 217 214 49 67 198 243 238 229 242 254 216 242 247 244 278 173 230 246 250 241 247 250 232 218 219 225 232 229 222 221 221 224 228 226 223 229 237 233 219 231 241 251 251 238 222 221 223 236 251 254 257 253 248 239 237 239 243 243 241 235 236 239 240 243 244 245 245 244 244 244 239 237 235
74 268 259 226 253 302 13 81 315 299 255 243 208 327 212 242 253 171 296 237 234 240 258 232 247 247 230 249 296 242 232 245 248 244 252 252 242 239 238 233 229 225 228 223 225 231 239 242 247 245 254 277 258 250 256 286 315 303 255 234 227 244 249 255 258 254 255 236 234 234 239 240 243 242 244 245 246 245 245 246 243 243 242 245 240 237
132 239 293 187 200 164 50 32 222 205 244 109 58 288 320 311 231 214 210 283 248 259 255 255 225 244 201 245 245 257 270 285 296 299 284 254 239 231 227 220 222 225 216 214 214 217 220 242 271 307 348 28 46 54 50 36 8 288 259 266 274 281 288 287 279 271 265 255 246 253 250 248 240 240 239 240 242 245 244 245 243 244 246 243 240 238
240 141 251 46 10 56 255 158 208 227 205 232 239 240 260 209 304 18 316 211 228 247 236 263 254 220 196 194 226 245 253 260 265 263 272 289 301 311 250 224 219 25 19 22 29 34 38 36 34 39 40 39 25 43 324 274 262 259 269 274 268 266 276 275 271 264 258 257 254 249 250 249 244 244 239 243 240 243 245 245 242 243 243 244 241 238
217 205 226 264 249 215 252 173 192 223 215 236 206 232 220 223 246 242 260 192 216 210 225 249 249 253 285 336 241 263 253 266 273 38 1 4 3 21 23 26 41 49 50 55 53 45 35 27 15 10 2 1 350 282 273 263 257 266 262 251 257 259 258 263 269 261 259 253 246 243 246 249 246 243 241 242 245 244 248 247 248 246 249 246 249 239
14 318 265 236 226 238 229 255 316 207 176 199 189 259 236 263 261 236 243 239 229 234 247 254 278 231 351 305 308 314 345 3 348 3 6 3 16 19 33 33 33 46 51 47 43 41 33 16 355 346 334 325 296 262 248 256 253 254 253 251 248 242 252 243 248 255 251 254 253 250 247 249 250 246 247 248 249 250 251 252 255 253 252 254 254 243
172 26 285 266 276 281 293 319 46 38 54 275 221 204 196 213 205 242 257 309 290 171 224 259 245 289 186 327 325 332 332 329 344 342 6 359 15 13 10 13 18 16 22 14 6 359 354 330 303 302 287 274 261 253 245 238 241 244 246 245 241 237 243 248 243 247 251 251 253 252 253 251 251 251 248 246 247 248 251 249 251 247 248 250 246 246
304 262 98 325 318 280 247 258 8 354 53 134 253 252 231 242 234 244 259 255 259 236 257 266 261 260 324 326 316 310 312 315 317 344 4 345 347 353 355 356 0 354 349 345 331 322 311 311 302 284 269 266 266 259 247 240 235 232 236 232 230 234 237 240 241 240 246 248 254 257 253 256 251 250 250 247 248 248 249 247 247 241 242 247 248 245
132 261 90 66 294 290 229 190 224 246 258 292 9 313 294 267 267 262 237 219 247 237 236 244 262 264 272 277 279 288 308 329 332 336 337 343 340 327 324 330 337 334 330 321 314 309 303 296 291 294 296 293 292 289 280 272 257 243 237 235 227 232 238 238 236 231 238 243 247 254 254 256 259 254 252 250 248 245 245 246 245 245 242 235 245 247
193 242 165 189 208 228 247 271 279 164 264 273 277 261 262 259 254 259 297 281 265 307 261 265 275 286 283 288 290 321 357 325 315 317 320 322 318 311 305 316 325 325 321 318 311 306 306 307 307 307 304 299 295 283 275 267 262 263 255 247 237 231 234 239 233 233 232 239 238 248 250 251 252 253 255 249 246 244 242 242 244 244 245 235 237 241
150 266 214 211 233 238 249 253 267 284 274 270 268 268 263 259 259 261 252 259 286 302 272 291 283 337 272 298 295 297 292 283 283 290 300 300 295 295 295 292 290 290 290 292 296 298 297 298 298 297 297 297 295 293 286 275 271 264 260 265 263 252 248 252 244 242 240 240 243 240 246 243 246 253 251 251 247 241 238 240 243 243 246 243 241 237
206 247 237 196 241 245 247 257 265 268 259 259 256 250 252 243 234 233 243 244 244 241 258 275 272 266 266 267 277 279 275 271 269 273 270 271 274 274 275 275 275 274 273 269 265 265 270 274 277 280 280 281 285 287 289 292 293 285 276 269 267 268 254 249 245 247 245 244 242 243 239 240 244 247 249 244 241 242 240 238 239 241 241 239 244 243
219 245 257 223 256 259 253 251 250 253 258 252 247 250 249 250 251 251 253 252 247 253 260 260 263 260 257 259 261 268 271 268 268 265 266 264 265 269 267 263 263 264 260 260 261 260 259 257 259 265 274 274 269 271 272 273 276 281 283 281 272 259 262 258 250 244 246 244 242 244 241 239 243 244 245 247 243 242 241 239 237 235 238 237 235 242
160 262 262 272 272 263 256 249 247 247 250 257 252 253 255 256 260 252 258 257 257 257 253 252 251 256 253 255 257 262 262 264 267 265 260 259 258 257 259 259 258 261 261 256 255 256 255 254 250 251 259 270 272 263 261 261 268 278 290 290 288 274 244 222 227 227 230 240 245 247 245 241 241 238 243 246 250 252 249 245 239 235 237 238 235 237
189 279 304 297 283 272 269 269 263 258 252 251 257 255 254 253 254 245 243 235 239 250 250 251 252 256 258 249 248 249 261 262 264 262 259 258 258 259 259 262 262 260 258 254 252 252 256 254 246 242 248 256 268 279 276 276 284 297 288 284 290 292 303 306 295 276 260 252 256 256 251 246 245 245 250 252 249 249 248 250 247 244 241 241 241 239
192 246 278 280 259 258 266 260 261 264 268 261 249 249 246 243 243 246 246 245 242 245 252 252 254 250 249 251 261 250 246 249 252 256 264 264 262 260 259 256 254 256 257 263 271 308 302 297 284 276 281 286 288 300 308 306 303 292 286 297 285 292 295 287 280 279 277 275 269 267 263 262 256 251 254 251 249 252 258 256 258 256 252 245 241 231
258 236 256 255 259 275 277 280 286 292 259 246 237 223 225 238 239 243 247 250 250 240 245 242 253 254 253 247 246 255 254 254 260 264 259 261 266 265 263 267 273 276 279 281 288 301 299 296 292 287 284 291 303 315 320 328 328 319 308 293 298 299 288 285 284 277 271 272 273 274 277 269 256 255 253 254 258 262 267 265 257 255 250 255 247 231
252 257 257 231 258 266 278 293 287 259 256 246 244 249 249 246 242 245 248 245 248 246 247 247 248 246 244 246 250 259 265 270 267 268 269 267 266 271 276 276 275 281 275 266 271 281 295 314 341 350 355 356 347 342 348 341 338 330 325 323 316 308 303 297 288 284 279 276 278 286 293 282 261 259 263 265 263 261 259 256 261 259 250 233 235 236
243 237 245 246 248 266 261 244 256 252 264 262 267 254 245 252 247 253 253 241 240 242 246 250 250 251 252 252 252 254 258 259 260 258 261 267 267 269 276 272 270 274 307 14 36 31 20 10 3 357 343 336 345 340 343 338 337 338 326 324 320 320 318 316 311 303 299 293 291 292 288 277 272 267 268 268 267 263 261 261 255 256 248 228 236 235
240 243 227 254 211 247 238 244 250 289 292 281 281 249 230 234 228 226 252 245 238 243 245 252 254 255 257 259 258 258 259 262 263 266 264 265 270 256 258 293 40 59 52 28 23 20 14 4 355 346 338 342 353 358 357 349 347 339 327 322 320 325 326 326 320 315 311 305 301 297 295 291 284 281 276 272 270 263 260 260 263 260 251 249 249 247
223 230 220 237 230 218 246 259 259 254 253 252 241 251 245 249 247 246 252 263 248 259 251 254 253 253 254 256 257 258 261 268 268 273 268 257 259 320 55 60 48 47 42 27 18 11 0 357 351 354 357 355 356 6 1 354 348 340 330 325 326 327 325 322 316 332 340 337 337 335 330 318 302 292 286 282 270 265 264 260 261 263 244 236 250 251
228 228 232 229 247 238 236 243 248 253 252 251 257 249 249 248 251 256 258 265 263 267 262 259 259 258 260 264 267 271 266 261 262 265 288 357 42 50 51 37 39 35 35 36 21 1 355 356 351 342 351 357 1 2 357 349 343 339 329 325 327 326 320 330 349 342 330 321 317 318 318 316 313 302 293 288 281 273 272 265 259 261 253 242 244 252
230 230 235 240 241 239 247 247 250 231 263 247 255 257 257 263 272 270 260 260 18 348 346 351 332 316 305 286 271 255 251 259 277 345 26 47 64 59 53 33 28 19 15 18 24 14 353 339 345 356 4 360 10 354 354 347 343 339 327 328 332 332 340 343 334 324 315 311 312 311 309 305 304 299 294 289 288 285 274 273 276 270 264 256 244 257
242 247 233 245 245 245 243 252 262 263 263 288 308 329 321 299 285 264 260 349 332 325 344 353 340 359 4 359 5 343 349 20 334 333 20 37 50 39 45 36 32 38 20 8 4 18 357 336 344 352 6 355 11 360 347 344 344 335 334 335 334 335 336 332 324 317 314 312 312 314 313 312 307 303 300 295 293 293 287 280 279 281 272 266 263 255
253 240 244 236 245 253 257 257 256 268 274 31 0 356 326 331 252 260 357 302 307 323 338 359 336 353 4 355 340 332 310 318 319 10 6 25 51 48 39 31 26 29 32 16 10 11 359 342 351 350 358 355 9 353 348 346 344 336 339 336 334 330 328 319 312 308 309 311 312 313 313 311 308 303 300 301 302 299 292 291 291 280 276 270 264 260
275 298 266 264 297 286 255 263 262 258 36 29 353 347 58 66 350 341 284 317 317 319 336 343 341 336 5 336 330 321 319 319 336 357 355 14 40 37 34 23 24 17 11 6 10 10 2 352 354 352 350 348 358 353 354 354 351 347 344 339 332 329 322 315 313 309 307 303 301 302 304 305 306 307 306 304 303 297 294 299 303 291 286 278 269 262
49 288 270 258 213 267 263 255 251 137 256 345 16 298 327 110 344 328 320 294 330 327 338 329 330 340 338 326 315 317 313 313 327 344 347 1 16 23 27 24 27 21 17 25 23 6 356 359 356 355 350 346 359 354 356 359 353 349 343 336 334 326 318 315 313 311 307 302 300 302 305 307 309 309 306 307 310 309 306 309 306 300 292 277 266 271
149 205 258 275 282 216 267 280 292 308 320 341 88 333 270 263 164 212 273 274 311 331 336 318 310 322 330 323 316 314 317 323 326 327 338 337 356 11 11 8 13 12 16 15 19 7 5 10 357 354 350 350 2 357 353 356 353 344 344 337 331 325 323 318 312 307 303 302 302 305 307 316 322 320 319 322 325 327 321 318 322 314 306 302 288 277
299 297 297 283 265 266 262 261 280 290 297 320 300 240 291 316 143 165 251 312 302 301 312 289 299 298 305 314 313 310 305 318 318 315 324 336 356 3 15 4 4 10 18 13 12 11 358 6 7 2 353 346 357 359 351 353 355 351 341 333 330 326 319 312 307 304 304 307 311 310 314 330 335 335 345 358 353 353 346 338 325 314 316 324 306 288
275 299 305 245 287 305 271 286 326 321 318 315 313 307 314 117 197 191 235 245 270 272 260 256 263 278 285 297 289 291 304 316 305 305 317 326 351 9 9 7 1 8 14 10 5 2 359 5 7 2 356 346 352 357 348 350 349 348 340 335 331 325 317 308 300 305 314 332 326 326 328 341 348 4 22 16 7 2 360 355 357 4 8 1 354 341
268 97 324 262 269 245 276 297 303 302 295 289 287 303 196 217 222 225 231 253 250 247 240 255 251 257 261 268 278 297 297 307 308 322 327 326 345 6 1 1 0 2 13 16 0 1 357 7 8 3 358 350 350 352 344 343 344 347 342 336 333 326 321 316 321 319 333 339 338 338 337 342 356 11 35 34 25 20 6 4 1 18 16 359 338 327
293 330 263 292 293 276 280 281 279 279 275 268 219 222 228 235 258 269 272 277 279 277 271 258 228 249 260 261 282 291 292 297 322 337 332 322 343 350 353 353 357 4 0 5 3 359 360 357 1 1 2 350 353 347 341 342 341 345 343 338 333 331 328 328 328 326 340 343 344 345 340 346 353 4 31 47 44 39 30 15 16 16 10 1 337 310
291 262 275 284 274 273 273 283 300 296 297 291 294 305 289 224 244 281 299 297 297 293 282 279 284 276 263 266 278 280 285 293 318 329 317 318 337 337 342 349 350 0 4 7 359 346 344 340 353 351 356 355 356 350 342 342 343 343 341 339 333 334 335 334 335 345 349 348 347 349 345 348 349 359 15 30 34 22 21 33 38 35 24 348 8 25
249 262 269 262 260 273 279 281 288 286 285 281 289 301 294 290 282 287 292 291 292 278 303 304 292 300 280 254 234 292 290 301 302 317 305 313 332 345 341 348 349 356 2 7 358 348 349 339 345 344 355 360 359 351 346 342 345 345 342 341 338 334 333 339 343 345 347 351 345 347 347 347 348 347 355 13 32 35 26 6 14 31 34 38 36 41